TimeCDT,TemperatureF,Dew PointF,Humidity,Sea Level PressureIn,VisibilityMPH,Wind Direction,Wind SpeedMPH,Gust SpeedMPH,PrecipitationIn,Events,Conditions,WindDirDegrees,DateUTC
12:14 AM,28.4,24.8,86,29.74,1.5,WNW,5.8,-,N/A,Snow,Light Snow,300,2012-10-10 05:14:00
12:33 AM,28.4,24.8,86,29.74,2.5,NW,6.9,-,N/A,Snow,Light Snow,310,2012-10-10 05:33:00
12:53 AM,28.4,24.8,86,29.75,2.0,WNW,8.1,-,N/A,Snow,Light Snow,290,2012-10-10 05:53:00
1:14 AM,28.4,24.8,86,29.75,7.0,NW,8.1,18.4,N/A,,Scattered Clouds,310,2012-10-10 06:14:00
1:34 AM,28.4,24.8,86,29.75,1.5,WNW,5.8,-,N/A,Snow,Light Snow,300,2012-10-10 06:34:00
1:53 AM,28.4,24.8,86,29.76,2.0,West,5.8,-,N/A,Snow,Light Snow,280,2012-10-10 06:53:00
2:14 AM,28.4,24.8,86,29.76,1.5,WNW,8.1,-,N/A,Snow,Light Snow,290,2012-10-10 07:14:00
2:34 AM,28.4,24.8,86,29.77,2.0,WNW,8.1,-,0.01,Snow,Light Snow,290,2012-10-10 07:34:00
2:54 AM,28.4,24.8,86,29.77,3.0,West,6.9,-,0.01,Snow,Light Snow,280,2012-10-10 07:54:00
3:13 AM,28.4,23.0,80,29.77,5.0,WNW,9.2,-,N/A,Snow,Light Snow,290,2012-10-10 08:13:00
3:34 AM,28.4,23.0,80,29.77,7.0,WNW,6.9,-,N/A,,Overcast,300,2012-10-10 08:34:00
3:54 AM,28.4,24.8,86,29.77,1.8,WNW,9.2,-,N/A,Snow,Light Snow,300,2012-10-10 08:54:00
4:14 AM,28.4,24.8,86,29.78,1.8,WNW,8.1,16.1,N/A,Snow,Light Snow,290,2012-10-10 09:14:00
4:33 AM,28.4,24.8,86,29.78,1.2,WNW,6.9,18.4,N/A,Snow,Light Snow,290,2012-10-10 09:33:00
4:54 AM,28.4,23.0,80,29.79,10.0,WNW,10.4,18.4,N/A,,Overcast,300,2012-10-10 09:54:00
5:14 AM,28.4,21.2,74,29.80,10.0,WNW,9.2,19.6,N/A,,Overcast,290,2012-10-10 10:14:00
5:33 AM,26.6,21.2,80,29.80,10.0,NW,15.0,21.9,N/A,,Overcast,310,2012-10-10 10:33:00
5:54 AM,26.6,21.2,80,29.80,10.0,NW,13.8,23.0,N/A,,Overcast,310,2012-10-10 10:54:00
6:13 AM,26.6,21.2,80,29.80,10.0,WNW,9.2,20.7,N/A,,Overcast,300,2012-10-10 11:13:00
6:34 AM,26.6,21.2,80,29.81,10.0,WNW,8.1,-,N/A,,Mostly Cloudy,300,2012-10-10 11:34:00
6:53 AM,26.6,21.2,80,29.82,10.0,NW,9.2,18.4,N/A,,Mostly Cloudy,310,2012-10-10 11:53:00
7:14 AM,26.6,19.4,74,29.82,10.0,NW,6.9,-,N/A,,Scattered Clouds,310,2012-10-10 12:14:00
7:33 AM,26.6,21.2,80,29.83,10.0,WNW,8.1,-,N/A,,Mostly Cloudy,290,2012-10-10 12:33:00
7:54 AM,26.6,19.4,74,29.84,10.0,WNW,10.4,20.7,N/A,,Mostly Cloudy,290,2012-10-10 12:54:00
8:14 AM,28.4,19.4,69,29.84,10.0,NW,9.2,18.4,N/A,,Mostly Cloudy,310,2012-10-10 13:14:00
8:34 AM,28.4,19.4,69,29.84,10.0,WNW,9.2,17.3,N/A,,Overcast,300,2012-10-10 13:34:00
8:53 AM,28.4,19.4,69,29.85,10.0,WNW,10.4,17.3,N/A,,Overcast,300,2012-10-10 13:53:00
9:14 AM,30.2,17.6,60,29.85,10.0,WNW,15.0,21.9,N/A,,Scattered Clouds,300,2012-10-10 14:14:00
9:34 AM,30.2,15.8,55,29.86,10.0,WNW,17.3,27.6,N/A,,Clear,300,2012-10-10 14:34:00
9:53 AM,30.2,17.6,60,29.86,10.0,WNW,15.0,21.9,N/A,,Scattered Clouds,300,2012-10-10 14:53:00
10:14 AM,30.2,17.6,60,29.87,10.0,NW,17.3,23.0,N/A,,Mostly Cloudy,310,2012-10-10 15:14:00
10:34 AM,30.2,17.6,60,29.88,10.0,WNW,15.0,21.9,N/A,,Overcast,290,2012-10-10 15:34:00
10:54 AM,32.0,19.4,60,29.88,10.0,WNW,10.4,18.4,N/A,,Overcast,300,2012-10-10 15:54:00
11:13 AM,32.0,19.4,60,29.89,10.0,WNW,11.5,-,N/A,,Mostly Cloudy,300,2012-10-10 16:13:00
11:54 AM,33.8,19.4,56,29.89,10.0,WNW,8.1,16.1,N/A,,Mostly Cloudy,300,2012-10-10 16:54:00
12:13 PM,35.6,19.4,52,29.89,10.0,West,9.2,19.6,N/A,,Mostly Cloudy,280,2012-10-10 17:13:00
12:34 PM,33.8,19.4,56,29.90,10.0,NW,9.2,18.4,N/A,,Mostly Cloudy,320,2012-10-10 17:34:00
12:54 PM,35.6,19.4,52,29.90,10.0,NW,6.9,-,N/A,,Mostly Cloudy,310,2012-10-10 17:54:00
1:14 PM,33.8,17.6,52,29.89,10.0,West,11.5,19.6,N/A,,Mostly Cloudy,280,2012-10-10 18:14:00
1:33 PM,35.6,19.4,52,29.89,10.0,WNW,9.2,-,N/A,,Mostly Cloudy,290,2012-10-10 18:33:00
1:54 PM,35.6,17.6,48,29.89,10.0,West,9.2,-,N/A,,Mostly Cloudy,280,2012-10-10 18:54:00
2:14 PM,35.6,17.6,48,29.89,10.0,WSW,8.1,-,N/A,,Overcast,250,2012-10-10 19:14:00
2:33 PM,35.6,17.6,48,29.89,10.0,WSW,9.2,-,N/A,,Mostly Cloudy,250,2012-10-10 19:33:00
2:54 PM,35.6,15.8,44,29.90,10.0,West,8.1,16.1,N/A,,Mostly Cloudy,270,2012-10-10 19:54:00
3:14 PM,37.4,17.6,45,29.90,10.0,West,8.1,-,N/A,,Mostly Cloudy,280,2012-10-10 20:14:00
3:33 PM,37.4,17.6,45,29.90,10.0,West,10.4,17.3,N/A,,Overcast,270,2012-10-10 20:33:00
3:54 PM,37.4,17.6,45,29.89,10.0,West,11.5,-,N/A,,Overcast,260,2012-10-10 20:54:00
4:14 PM,37.4,17.6,45,29.89,10.0,West,9.2,-,N/A,,Overcast,280,2012-10-10 21:14:00
4:33 PM,37.4,19.4,48,29.89,10.0,West,9.2,-,N/A,,Mostly Cloudy,270,2012-10-10 21:33:00
4:54 PM,37.4,19.4,48,29.89,10.0,WSW,6.9,-,N/A,,Scattered Clouds,240,2012-10-10 21:54:00
5:14 PM,35.6,19.4,52,29.90,10.0,WSW,3.5,-,N/A,,Clear,250,2012-10-10 22:14:00
5:33 PM,35.6,19.4,52,29.90,10.0,West,4.6,-,N/A,,Mostly Cloudy,270,2012-10-10 22:33:00
5:54 PM,33.8,19.4,56,29.90,10.0,Calm,Calm,-,N/A,,Scattered Clouds,0,2012-10-10 22:54:00
6:14 PM,33.8,19.4,56,29.90,10.0,Calm,Calm,-,N/A,,Mostly Cloudy,0,2012-10-10 23:14:00
6:33 PM,33.8,19.4,56,29.91,10.0,Calm,Calm,-,N/A,,Overcast,0,2012-10-10 23:33:00
6:54 PM,33.8,19.4,56,29.90,10.0,Calm,Calm,-,N/A,,Overcast,0,2012-10-10 23:54:00
7:14 PM,33.8,19.4,56,29.90,10.0,SW,3.5,-,N/A,,Overcast,220,2012-10-11 00:14:00
7:33 PM,33.8,21.2,60,29.90,10.0,SW,3.5,-,N/A,,Overcast,220,2012-10-11 00:33:00
7:54 PM,33.8,21.2,60,29.91,10.0,SSW,3.5,-,N/A,,Overcast,210,2012-10-11 00:54:00
8:14 PM,33.8,21.2,60,29.91,10.0,Calm,Calm,-,N/A,,Overcast,0,2012-10-11 01:14:00
8:53 PM,33.8,21.2,60,29.90,10.0,Calm,Calm,-,N/A,,Overcast,0,2012-10-11 01:53:00
9:13 PM,33.8,21.2,60,29.90,10.0,Calm,Calm,-,N/A,,Mostly Cloudy,0,2012-10-11 02:13:00
9:34 PM,33.8,21.2,60,29.90,10.0,SSW,5.8,-,N/A,,Mostly Cloudy,210,2012-10-11 02:34:00
9:53 PM,35.6,21.2,56,29.90,10.0,SW,9.2,19.6,N/A,,Overcast,230,2012-10-11 02:53:00
10:13 PM,35.6,24.8,65,29.90,10.0,SSW,9.2,17.3,N/A,,Mostly Cloudy,210,2012-10-11 03:13:00
10:34 PM,33.8,26.6,75,29.89,3.0,SSW,5.8,-,N/A,Snow,Light Snow,210,2012-10-11 03:34:00
10:54 PM,32.0,26.6,80,29.89,7.0,SSW,3.5,-,N/A,,Overcast,210,2012-10-11 03:54:00
11:14 PM,33.8,28.4,81,29.89,10.0,SW,4.6,-,N/A,Snow,Light Snow,220,2012-10-11 04:14:00
11:34 PM,33.8,28.4,81,29.88,10.0,SW,4.6,-,N/A,Rain,Light Rain,220,2012-10-11 04:34:00
11:54 PM,32.0,28.4,87,29.88,3.0,SW,6.9,-,N/A,,Overcast,230,2012-10-11 04:54:00